Wind_Speed
11 11 11 10 10 10 10 9 8 8 7 6 6 7 8 8 8 7 6 7 8 8 9 9 10 10 10 11 12 12 11 11 11 12 12 13 13 14 14 14 12 7 6 10 12 13 15 14 11 10 10 11 11 11 12 13 15 16 16 17 18 17 16
10 10 10 10 10 10 10 10 10 9 8 7 7 7 7 8 8 8 8 8 8 8 8 8 8 10 10 11 12 13 13 12 11 11 12 13 14 14 14 13 13 10 7 8 10 11 12 13 12 12 12 12 12 12 12 12 14 15 16 17 17 16 15
10 9 9 9 9 10 9 10 10 9 8 8 7 7 7 7 7 7 8 8 8 9 9 9 9 9 9 10 11 13 14 14 13 12 11 12 13 14 14 14 14 12 9 7 9 10 10 10 11 12 11 11 12 12 12 13 15 15 16 15 15 15 15
10 10 9 9 9 9 9 9 9 8 8 7 7 6 6 6 6 5 6 6 7 8 9 11 11 11 11 12 13 14 14 14 14 14 13 13 13 13 14 14 14 14 12 10 9 9 10 10 10 11 11 11 11 10 10 11 13 13 14 14 14 14 15
10 10 10 10 10 9 9 9 9 8 8 7 6 6 6 6 6 5 5 5 6 6 7 8 9 11 11 12 13 15 15 15 15 15 15 15 15 14 13 13 12 13 13 12 10 10 10 11 12 13 12 12 12 11 12 12 11 10 11 13 13 14 14
11 10 10 10 10 10 9 9 8 8 8 7 6 5 6 7 7 7 6 6 6 6 6 6 7 8 8 9 10 11 13 13 14 15 16 16 16 16 15 14 13 12 12 12 11 10 10 12 13 14 15 15 14 15 16 18 17 16 15 14 15 15 15
12 11 11 10 10 10 10 9 9 8 7 6 5 5 6 7 8 8 7 6 6 6 6 7 7 7 7 7 8 9 10 11 12 13 14 15 16 17 17 17 17 16 15 15 14 13 12 13 14 16 18 18 18 19 19 19 19 18 18 16 16 16 16
12 12 12 11 10 10 10 10 9 9 7 6 6 5 7 8 9 10 10 9 8 9 9 9 9 8 8 8 8 9 10 10 11 11 12 12 12 13 14 15 15 15 15 15 15 15 14 15 15 15 16 16 16 17 18 17 17 17 18 18 17 16 14
11 12 12 12 11 10 10 10 10 10 9 8 7 7 8 9 9 10 11 11 11 11 11 11 10 10 10 9 10 11 11 11 10 11 12 13 12 11 11 10 10 11 11 11 12 11 11 12 12 12 13 13 12 12 11 11 11 11 11 12 12 12 11
11 11 12 12 12 11 10 10 10 11 10 9 8 8 9 10 10 10 11 12 13 12 11 10 10 11 12 12 12 13 14 14 13 12 12 12 13 13 12 11 11 10 10 10 10 10 9 8 8 9 9 8 8 7 7 7 7 8 9 9 9 9 10
12 11 11 12 13 13 12 11 11 11 12 10 9 10 10 11 12 12 12 13 13 13 13 12 12 12 13 13 13 14 14 13 14 13 13 12 12 13 13 12 11 11 11 10 9 9 9 8 8 9 10 10 10 11 11 11 11 12 11 10 8 7 8
14 13 12 13 14 15 15 14 13 13 13 12 11 11 11 11 12 13 13 14 14 14 13 14 14 15 15 14 14 14 13 13 13 14 14 14 14 14 14 14 13 12 12 12 11 10 11 10 10 10 11 11 10 10 11 11 11 11 10 10 9 7 8
14 14 13 14 15 17 16 15 15 14 13 13 12 11 11 12 13 13 13 14 15 15 15 16 16 16 16 15 13 12 12 13 15 14 14 13 12 13 14 14 13 13 13 13 13 12 12 12 11 11 11 11 10 10 10 10 11 12 11 12 11 11 11
15 15 15 14 16 17 17 16 16 15 15 14 12 12 12 13 14 15 15 16 17 18 19 18 18 18 18 17 15 14 14 15 15 15 15 14 13 14 15 14 14 14 14 13 12 11 11 11 11 10 10 10 11 11 10 10 11 12 13 15 16 17 19
17 16 16 15 16 18 19 18 16 16 16 15 13 12 12 14 15 16 16 17 18 19 20 20 19 19 19 19 18 17 16 15 14 15 15 15 15 16 16 16 16 16 16 16 16 15 15 14 15 14 13 12 12 12 12 13 14 16 17 20 21 22 24
17 17 17 17 17 19 20 20 18 17 17 16 15 13 13 14 15 15 16 16 17 18 19 19 19 19 19 19 18 17 15 14 13 14 15 16 16 16 16 16 16 13 13 14 15 16 17 18 19 19 20 20 19 19 20 20 21 20 18 18 17 16 17
18 18 18 18 19 20 22 22 20 18 18 18 16 14 14 15 15 15 16 17 17 18 19 19 19 18 18 18 17 16 15 14 13 14 15 16 17 17 17 17 16 15 14 14 14 15 15 16 17 17 18 19 19 20 19 17 18 17 15 13 10 8 11
21 21 21 21 21 21 22 23 22 20 20 20 18 16 16 16 16 17 17 17 17 18 18 19 18 17 17 18 18 18 17 15 14 15 15 15 15 16 16 18 18 18 18 16 14 13 13 14 15 16 18 20 21 22 21 20 20 19 16 14 12 10 12
22 23 23 22 22 21 22 23 24 24 24 23 20 18 17 17 17 18 18 17 17 17 17 17 17 17 18 19 20 20 18 15 14 15 15 15 14 15 18 19 18 17 16 14 12 12 13 14 15 16 19 21 22 23 24 25 27 25 22 20 19 17 13
23 23 23 22 22 22 23 25 27 28 27 26 23 20 18 18 19 19 19 18 17 17 17 18 18 18 18 18 18 18 17 15 15 15 15 15 15 17 19 18 16 14 14 14 14 15 16 18 19 19 20 19 19 18 18 20 23 24 25 25 23 20 16
25 25 26 25 25 26 27 28 29 29 28 27 25 23 21 20 21 22 21 20 19 18 19 19 19 18 17 16 16 16 15 16 16 14 15 16 17 18 18 16 15 15 15 15 17 18 19 20 20 19 18 16 15 14 13 14 15 17 20 22 23 22 19
26 26 27 26 27 28 29 29 29 28 29 28 27 25 22 21 22 22 20 20 20 19 20 20 19 18 17 16 16 14 13 14 15 15 16 17 17 17 17 16 17 17 17 18 19 19 20 19 19 18 17 16 15 15 14 14 14 14 15 17 20 21 21
25 26 26 27 28 28 28 27 25 25 25 25 24 23 22 21 21 21 20 20 21 21 21 20 19 18 17 16 16 15 14 14 15 16 17 18 17 17 17 17 18 18 18 19 19 19 20 20 19 19 18 17 16 16 15 15 15 15 16 17 18 19 21
22 22 23 24 25 25 23 22 20 20 20 20 20 20 19 19 19 19 19 20 21 22 21 20 19 18 16 15 15 14 14 15 16 17 18 19 18 19 19 19 20 20 19 18 18 19 20 20 19 19 19 18 17 16 15 15 15 14 15 17 18 19 20
20 20 20 20 21 21 20 19 19 19 19 18 17 16 16 16 17 18 18 19 20 20 19 19 18 17 16 16 16 16 17 18 20 20 21 21 21 22 22 22 22 21 20 20 20 20 20 20 19 19 18 17 16 16 16 17 17 17 17 18 19 21 22
19 19 19 19 20 20 20 19 19 20 19 16 15 15 15 15 16 16 17 18 18 18 17 17 17 17 18 18 18 18 19 20 21 20 19 20 20 20 21 22 22 21 21 21 20 20 20 20 19 18 17 16 16 17 17 17 17 17 18 17 17 19 21
18 18 17 18 18 19 19 18 18 19 18 16 15 14 13 13 13 12 12 14 14 14 15 15 15 16 16 17 17 17 18 19 20 20 21 21 21 21 21 21 21 22 22 22 21 21 21 20 18 17 17 16 16 17 17 16 16 17 17 17 17 18 19
18 18 18 17 17 17 16 17 17 16 15 14 13 13 12 11 10 9 9 11 11 12 13 12 13 14 16 16 18 19 20 21 21 22 22 22 22 21 21 21 21 22 23 23 23 22 21 19 17 17 16 16 17 18 18 17 17 18 18 17 16 16 16
20 20 20 19 19 17 15 15 16 15 13 12 12 13 13 14 14 13 13 13 12 12 13 14 15 17 18 18 19 20 20 20 21 21 22 22 21 21 21 21 21 22 23 23 22 22 21 19 18 18 18 18 19 20 20 18 18 18 18 18 17 17 16
25 24 23 23 23 22 20 20 19 17 16 14 13 14 15 17 18 18 17 16 15 15 16 17 18 19 19 19 19 19 19 20 20 21 21 21 21 21 21 21 22 22 22 22 21 21 21 21 20 20 20 20 20 20 19 17 17 18 18 17 17 16 16
27 26 25 25 25 26 27 27 26 25 24 23 21 19 19 19 19 18 17 16 15 16 17 18 18 19 19 19 20 20 20 21 21 21 21 21 21 20 20 21 22 23 22 22 21 21 21 20 20 19 18 18 18 18 18 18 17 18 18 19 18 17 17
24 25 25 25 25 25 26 28 28 27 26 25 23 21 20 18 18 17 15 14 15 17 18 19 19 19 19 19 20 20 21 21 22 22 22 21 20 20 19 20 20 21 21 22 22 21 21 19 19 19 18 18 18 17 17 18 18 18 19 19 19 19 18
21 22 23 24 24 23 24 25 26 25 23 21 19 18 17 17 17 17 16 15 17 19 20 19 20 21 21 21 22 22 22 22 22 22 23 22 22 21 21 21 20 20 20 20 21 21 21 20 19 18 18 18 18 18 18 18 19 19 19 18 18 18 18
20 19 20 21 23 23 23 24 23 23 22 21 20 19 18 18 18 18 17 17 19 21 21 20 20 21 22 23 24 24 23 23 23 23 23 23 23 22 22 22 21 21 21 20 20 20 20 20 19 19 18 18 19 19 20 20 19 18 18 18 17 17 18
22 21 19 19 20 22 23 23 23 22 21 21 21 20 18 18 19 20 20 20 22 23 23 23 22 23 24 24 24 24 24 23 24 24 24 23 22 22 22 23 22 22 23 23 22 21 21 21 21 22 22 21 21 21 20 20 19 19 19 19 19 18 18
24 23 21 20 20 21 22 22 22 22 21 21 20 18 16 17 20 21 21 22 23 24 24 25 25 26 26 25 25 25 24 24 24 25 25 24 24 24 24 24 23 23 23 23 24 23 23 22 22 23 23 22 22 22 22 21 21 20 19 19 19 18 18
Wind_Direction
16 14 14 13 10 10 11 7 3 357 349 338 334 338 334 330 332 330 323 311 301 303 304 289 280 279 273 269 273 272 268 264 260 256 252 249 251 249 245 239 236 245 260 254 254 258 258 265 278 275 261 254 255 256 258 258 257 257 258 259 258 259 263
9 9 7 7 6 7 8 6 6 5 3 359 349 342 336 326 323 322 319 318 311 303 304 301 291 286 282 276 276 273 269 268 264 259 255 249 249 252 251 245 243 248 258 259 255 252 251 252 257 265 268 265 262 260 256 255 257 257 256 256 256 257 260
1 0 359 359 359 360 360 359 360 359 0 4 2 358 352 342 337 331 320 312 307 298 292 292 291 286 282 280 282 279 272 270 268 266 265 258 252 253 253 249 249 251 256 264 261 254 254 251 249 257 265 270 273 271 261 259 263 260 251 247 252 258 263
356 354 353 354 354 353 354 353 352 351 350 350 351 350 348 345 344 340 332 321 311 302 294 289 285 281 277 275 277 278 275 272 271 271 273 270 265 264 261 256 255 256 259 266 266 259 258 259 258 260 262 266 272 269 262 267 270 260 247 240 246 257 266
353 352 350 351 350 349 349 347 344 342 340 339 341 342 335 329 325 318 318 317 311 307 305 301 292 284 279 275 273 273 273 272 272 272 271 270 268 267 266 262 259 259 262 266 268 265 261 261 264 266 264 265 273 275 270 274 276 266 255 249 250 255 262
344 346 346 346 345 344 341 340 337 334 333 331 329 335 333 325 317 309 304 301 300 298 294 293 290 284 280 277 276 274 271 269 269 268 267 266 264 264 264 264 262 261 265 271 274 272 267 263 266 271 270 268 274 279 276 276 278 275 269 264 262 262 265
334 336 337 337 337 337 333 331 329 326 326 323 318 323 324 318 311 305 299 290 284 281 276 269 266 268 272 273 275 273 271 269 268 269 269 268 268 268 268 270 271 271 273 275 276 275 271 268 267 270 271 271 272 273 272 272 273 273 269 266 266 268 270
326 326 328 328 329 329 326 322 320 319 314 307 309 321 320 312 305 300 294 286 277 271 268 266 262 261 262 263 265 265 266 267 270 273 270 266 269 274 273 272 271 271 272 271 270 267 264 263 262 260 263 266 262 259 259 260 260 263 265 264 264 266 268
318 317 318 320 320 320 319 315 309 309 307 299 303 318 318 307 299 296 293 290 286 278 271 268 267 262 254 252 255 259 263 265 268 271 270 263 261 269 276 276 270 268 269 270 269 267 263 260 257 255 259 260 254 249 255 261 264 267 269 269 270 268 268
313 311 308 308 309 310 310 307 299 297 298 295 297 306 308 299 290 286 284 285 284 278 270 266 267 265 263 263 263 263 264 264 262 263 268 270 267 266 271 275 274 268 265 266 266 267 271 272 265 261 265 269 271 280 292 300 308 312 306 300 296 287 281
309 306 301 299 301 303 305 304 296 291 293 293 291 294 296 294 287 280 277 276 272 268 267 266 265 268 275 277 274 271 270 267 262 257 257 260 260 258 258 263 269 269 264 265 267 265 267 274 275 272 275 284 291 296 300 301 305 308 307 306 302 291 285
305 303 298 292 291 294 299 301 297 292 293 292 291 290 289 286 282 276 273 269 262 261 267 269 268 272 278 277 274 276 277 273 268 263 259 256 255 253 250 249 255 261 261 262 265 264 259 260 266 269 271 277 287 292 292 290 290 294 297 296 288 278 279
301 299 295 287 284 288 292 296 296 294 292 289 287 286 284 281 276 271 267 261 256 261 267 270 274 279 282 278 272 270 270 269 271 272 268 263 257 253 251 249 251 256 258 260 263 262 256 251 256 260 259 261 272 283 285 282 282 283 283 283 279 277 278
297 297 294 286 282 283 288 293 294 294 292 288 284 283 282 277 272 268 264 259 258 264 268 271 276 280 283 283 276 267 265 269 275 276 272 266 257 251 250 249 248 245 244 249 256 262 260 251 250 254 254 253 257 267 272 275 277 277 277 280 279 278 278
291 291 289 285 281 281 285 290 291 291 291 287 282 281 279 274 270 269 267 264 263 266 268 271 274 276 280 281 276 270 268 270 274 276 277 275 268 261 258 255 253 251 249 251 255 261 264 260 255 256 256 253 252 259 266 270 272 272 275 278 275 273 272
284 284 283 282 280 279 283 289 291 289 288 286 282 277 275 273 270 268 265 262 263 265 267 268 271 275 278 277 273 271 269 268 271 272 273 274 271 271 272 268 265 262 258 260 264 266 267 265 263 262 261 261 262 265 267 268 267 265 266 269 268 265 264
279 279 278 277 275 275 278 284 288 287 286 286 283 275 270 270 268 266 263 259 259 260 261 264 270 273 273 269 267 268 268 268 270 268 266 268 272 276 280 278 274 268 262 267 273 272 269 267 264 262 259 257 257 257 259 263 263 258 258 264 265 263 263
277 277 276 273 272 273 275 279 285 286 283 284 282 275 268 266 265 263 262 260 258 256 257 263 268 268 265 265 268 270 268 266 265 263 262 265 270 274 275 274 275 277 278 280 281 277 271 264 258 254 251 248 248 246 247 254 260 260 260 262 260 262 270
275 276 275 272 270 270 271 275 282 284 282 282 282 275 264 260 260 260 261 261 258 255 256 260 264 262 260 263 268 268 264 260 259 259 260 262 266 269 269 270 274 280 285 287 283 275 270 264 259 259 258 257 256 252 248 249 253 254 253 253 254 256 262
272 272 273 271 268 268 269 272 278 281 281 280 279 275 264 255 252 253 254 255 255 254 255 256 257 259 260 263 265 261 254 251 254 256 257 260 262 264 268 272 275 275 276 277 274 270 269 269 270 272 273 273 269 263 254 250 250 249 246 244 246 248 245
270 269 269 268 267 268 271 274 276 278 278 277 275 274 266 253 249 252 253 252 252 253 254 253 253 255 258 263 264 258 251 250 251 252 255 259 262 264 268 272 271 269 268 269 271 273 274 276 277 278 279 280 277 271 265 260 256 251 246 243 242 242 242
271 270 269 269 268 269 272 275 276 275 275 274 273 272 266 255 252 254 253 250 250 250 251 253 255 257 258 258 259 258 253 250 249 251 255 260 262 264 265 265 264 266 267 266 267 268 269 269 269 269 270 271 270 268 266 265 263 260 256 252 248 245 244
272 270 270 269 269 271 274 276 277 274 273 273 271 270 268 261 256 253 249 247 247 250 253 255 257 259 259 258 257 257 255 252 253 255 258 260 261 261 261 262 262 262 262 261 260 259 258 258 259 260 261 260 259 259 260 261 261 258 254 253 252 250 249
273 270 268 267 268 271 274 276 277 274 271 271 269 267 266 265 259 252 247 247 249 252 255 258 258 259 259 259 258 257 256 256 256 258 260 261 260 260 260 259 259 257 256 256 255 253 253 254 254 255 256 256 256 257 257 257 254 249 245 246 247 249 250
272 268 267 268 269 271 274 275 276 276 273 270 267 264 264 268 266 257 249 248 252 255 257 259 260 260 261 261 261 261 262 261 261 262 264 264 262 260 258 255 253 253 252 250 249 249 250 252 254 254 255 256 257 258 259 259 258 256 256 257 259 259 258
275 271 268 269 270 273 275 275 275 275 273 269 264 263 266 270 271 264 254 251 253 256 260 263 264 264 265 265 264 265 265 265 265 265 264 263 260 257 254 250 248 246 244 244 246 248 250 253 256 257 257 257 257 259 261 263 263 265 266 266 267 267 265
275 275 273 272 272 274 275 276 275 274 272 266 260 260 267 270 269 265 258 255 258 264 269 272 270 267 266 266 267 267 267 267 268 266 264 261 259 255 252 248 245 243 243 245 248 251 254 257 259 259 258 257 257 258 260 261 263 265 266 266 266 267 267
275 275 276 279 280 280 278 276 275 274 273 267 256 249 253 256 252 250 253 258 266 273 273 270 267 265 265 267 270 271 270 269 268 267 265 263 260 256 252 249 247 245 245 247 249 251 255 257 257 256 256 256 257 259 260 260 261 261 263 265 266 267 267
278 276 277 279 282 284 284 281 277 273 273 272 256 241 237 238 240 250 259 260 261 267 270 268 267 268 269 271 271 271 270 268 266 264 262 260 259 256 251 247 246 244 244 246 248 250 253 255 257 257 258 258 259 260 259 258 257 258 262 266 265 263 263
274 274 275 275 274 274 274 274 272 268 265 266 262 254 251 250 253 261 266 263 260 265 269 270 269 268 267 267 267 267 267 266 265 262 260 258 256 253 247 244 243 244 246 249 250 251 253 255 255 255 254 253 253 254 255 254 253 256 260 262 261 260 261
274 273 272 271 270 269 269 269 268 264 260 259 261 263 262 261 261 263 264 263 263 264 264 263 262 262 262 261 261 261 261 262 261 260 259 258 256 252 246 242 242 244 247 250 251 252 253 251 250 249 248 248 248 251 252 253 254 256 258 259 259 259 260
278 276 273 270 267 266 267 269 268 267 265 263 264 264 263 262 262 261 260 259 259 258 257 255 255 256 257 257 257 258 259 260 259 258 257 256 255 252 247 244 245 249 250 248 247 249 251 251 251 250 250 250 251 252 253 254 254 255 256 258 259 258 259
281 279 276 273 270 266 265 267 268 268 266 264 264 263 262 261 260 259 257 255 253 254 254 253 252 253 254 255 256 258 259 260 259 259 258 255 252 250 249 250 252 255 254 251 248 247 248 251 252 251 250 250 249 250 252 253 252 253 253 255 256 257 258
284 282 279 276 273 270 268 267 269 269 267 264 263 262 262 263 263 261 257 252 251 252 254 253 252 253 253 254 255 256 257 258 258 259 258 255 251 249 251 254 254 253 252 253 252 249 246 247 247 247 248 250 251 251 252 251 250 251 251 251 253 254 255
285 285 283 279 275 273 270 268 269 271 271 270 267 264 261 262 261 258 254 251 250 251 251 251 250 251 252 253 254 255 256 256 256 257 256 253 250 249 252 254 253 251 250 252 253 252 249 247 247 249 251 252 251 249 248 247 247 247 246 246 248 250 252
282 283 283 280 276 274 273 271 269 270 272 273 271 266 258 253 252 252 252 252 251 250 250 250 250 250 252 254 254 255 256 256 256 256 254 252 251 252 252 252 250 249 250 250 250 250 249 246 246 248 248 246 245 243 244 245 245 245 246 247 248 250 252
Height
762 761 760 759 759 758 757 756 755 755 755 755 755 754 754 753 753 753 752 752 752 753 753 753 753 753 753 753 753 753 753 752 752 751 751 751 751 751 752 753 753 753 752 752 753 753 753 754 755 755 755 756 756 757 757 757 757 757 757 757 757 757 758
762 761 760 759 759 758 757 756 755 755 755 755 755 754 754 753 753 753 753 752 752 752 752 752 752 753 753 753 753 753 753 752 751 751 750 751 751 751 752 753 753 753 752 752 753 753 753 753 754 754 754 754 754 755 755 755 755 755 755 755 755 755 756
762 761 759 758 758 757 756 756 755 755 755 755 754 754 754 754 753 753 752 752 752 752 752 752 752 752 752 752 752 753 753 752 751 751 750 750 751 751 752 752 753 752 752 752 752 752 752 752 752 752 752 752 752 753 753 753 753 753 753 753 753 753 753
762 761 759 758 757 756 756 755 755 755 755 754 754 753 753 753 753 753 752 752 752 752 752 752 752 752 752 751 751 752 753 752 752 751 751 751 751 751 751 751 752 751 751 751 751 751 751 751 751 751 751 751 751 751 751 751 751 751 750 751 751 751 751
762 761 759 758 757 756 755 754 754 754 754 754 754 753 753 753 753 753 752 752 752 752 752 752 752 752 752 751 751 751 752 752 752 752 751 751 751 750 750 750 750 750 750 750 749 749 750 750 750 749 749 750 749 749 749 749 749 749 749 748 748 748 748
762 760 759 758 757 756 755 754 754 754 754 754 753 753 752 752 752 752 752 752 752 751 751 751 751 752 752 751 751 751 751 752 752 752 751 751 751 750 750 749 749 749 749 748 748 748 749 749 748 748 748 748 748 748 747 747 746 747 747 747 746 746 746
761 760 759 758 757 756 755 754 754 754 753 753 753 752 752 752 751 751 751 751 751 751 751 751 751 751 751 751 750 750 750 751 751 751 751 750 750 750 749 749 748 748 748 747 747 747 748 747 747 747 746 746 747 746 745 745 744 744 744 745 744 744 745
760 759 758 757 756 756 755 754 754 754 753 753 753 752 751 751 751 751 751 751 751 751 751 750 750 750 749 749 749 749 749 750 750 749 749 749 749 749 749 748 748 747 747 746 746 746 746 745 745 745 744 744 744 743 743 743 743 742 742 743 743 743 743
760 759 758 757 756 755 755 754 754 753 753 753 752 752 751 751 751 751 751 751 750 750 750 749 749 748 748 748 748 748 749 749 749 749 748 748 748 748 747 746 746 746 745 745 744 744 744 743 743 742 742 742 742 741 741 741 741 741 741 742 742 742 742
759 758 757 756 755 755 754 754 753 753 753 752 752 751 751 750 750 750 750 750 750 749 749 748 747 746 746 746 746 747 747 747 747 747 747 747 746 746 745 745 745 744 744 744 743 742 742 741 741 740 740 740 740 739 739 739 740 740 740 740 740 740 741
758 757 756 755 754 754 753 753 753 752 752 751 751 750 750 750 749 749 749 749 749 748 747 747 746 745 745 745 745 745 745 745 745 744 744 744 744 744 744 744 744 743 743 743 742 741 740 740 739 739 739 738 738 738 738 738 739 739 739 739 739 739 739
756 756 755 754 753 753 752 752 751 751 750 750 750 749 749 749 749 748 748 748 747 747 746 745 744 744 744 743 743 743 743 742 742 742 742 742 742 742 742 742 742 742 742 741 740 739 739 739 738 738 738 738 738 737 737 738 738 739 739 738 738 738 738
755 754 754 753 752 751 751 750 750 749 749 749 748 748 748 748 747 747 747 747 746 745 744 743 743 742 741 741 741 741 741 740 740 739 739 740 740 740 740 740 740 740 740 739 738 737 737 737 737 737 737 737 737 737 737 737 738 738 738 738 737 737 737
753 753 752 751 751 750 749 749 748 748 747 747 747 747 747 746 746 745 745 744 744 743 742 741 740 739 739 739 739 739 738 738 738 738 737 738 737 737 737 737 737 737 736 736 736 735 735 735 735 735 735 735 736 735 736 737 737 737 737 736 736 735 735
751 751 750 749 749 748 747 747 746 746 746 745 745 745 744 744 743 742 742 741 740 740 739 738 738 737 737 736 736 736 736 736 736 736 735 735 735 734 734 734 734 734 734 733 733 733 733 733 733 733 733 733 734 734 734 735 735 736 736 735 734 733 733
749 749 748 747 747 746 745 744 744 744 743 743 743 742 742 741 740 739 739 738 738 737 736 736 736 735 735 734 734 734 734 734 735 734 733 733 732 732 731 731 731 731 731 731 731 730 730 730 730 731 731 731 732 733 733 733 733 733 734 733 731 730 729
747 747 746 745 744 743 742 742 742 741 741 740 740 740 739 738 737 736 736 735 735 734 734 734 733 733 732 732 732 732 732 733 733 732 732 731 730 729 728 728 728 728 728 728 727 727 728 728 728 728 728 729 730 730 731 731 730 730 731 730 728 727 726
745 744 743 742 742 741 740 739 739 739 738 738 738 737 736 735 734 734 733 732 732 732 732 731 731 731 730 730 730 730 730 731 731 730 729 729 728 727 726 725 725 724 724 724 724 724 724 724 724 725 725 725 726 727 728 727 726 727 728 727 725 724 724
742 741 740 739 739 738 737 736 735 736 735 734 734 734 733 732 731 730 730 729 729 729 729 729 728 728 728 728 728 728 728 728 728 727 727 726 726 725 723 723 723 723 722 722 722 722 722 721 721 722 722 722 723 723 724 723 723 723 724 723 722 722 723
739 737 736 736 736 735 735 733 732 732 731 731 731 730 730 729 728 727 727 727 727 726 726 726 726 726 726 726 726 726 725 725 725 725 724 724 723 722 721 721 722 721 721 720 720 720 719 719 719 719 719 719 719 718 719 719 719 719 719 719 719 720 720
736 734 733 733 733 732 731 730 729 728 728 727 727 726 726 725 724 724 724 724 724 724 723 723 723 723 724 724 723 723 723 722 722 722 722 721 721 720 719 720 719 719 719 718 718 717 717 716 716 716 715 715 715 714 715 715 715 715 715 715 715 716 716
733 731 730 730 729 728 727 727 726 725 724 723 723 723 723 722 721 721 721 721 721 720 720 720 720 721 721 721 721 720 720 720 719 719 719 718 718 718 718 718 717 717 717 716 716 715 715 714 714 713 713 713 712 712 712 712 712 712 712 712 712 713 713
730 729 727 726 725 724 723 723 722 721 721 720 720 720 719 719 718 719 719 718 717 717 717 717 718 718 718 718 718 718 717 717 717 717 716 716 716 716 716 715 715 714 714 714 713 713 712 711 711 711 711 710 710 709 710 710 710 710 710 710 710 710 710
727 726 724 722 721 720 720 719 719 718 717 717 717 717 717 717 716 716 716 716 715 714 715 715 715 715 715 715 715 715 715 714 714 714 713 713 713 713 713 713 712 711 711 711 710 710 709 708 708 708 708 708 708 707 708 707 707 707 707 707 707 707 707
724 723 721 720 718 717 717 717 716 716 715 714 714 714 714 715 714 714 714 713 713 712 712 712 713 713 713 712 712 712 712 711 711 710 710 709 709 709 709 709 708 708 708 707 706 706 705 705 705 705 705 705 705 705 705 705 704 704 704 704 704 704 704
722 720 719 717 716 715 715 715 715 714 713 712 712 712 712 712 712 712 712 711 711 711 710 710 710 710 709 709 709 708 708 707 707 707 706 706 706 705 705 705 705 705 704 703 703 703 702 702 703 703 703 703 703 703 702 702 702 702 702 702 702 701 701
720 718 717 715 714 713 713 712 712 712 711 710 709 709 710 710 709 709 709 709 709 709 708 708 707 707 706 706 705 705 705 704 704 703 703 702 702 702 701 701 701 701 701 700 700 700 700 700 701 701 701 701 700 700 699 699 700 699 699 700 700 699 698
717 717 715 714 713 712 711 710 710 710 709 708 707 707 707 707 707 707 707 707 707 706 706 705 704 704 703 703 702 702 702 701 701 700 699 698 698 698 698 698 698 698 698 698 698 698 697 698 698 698 698 698 697 697 697 697 697 697 697 697 698 697 696
715 715 714 713 712 711 709 708 708 708 708 707 706 706 705 705 705 705 704 705 705 704 703 702 702 701 701 700 700 699 698 698 697 696 695 695 695 695 695 695 695 695 695 695 695 695 695 695 695 695 695 695 695 694 694 695 695 695 695 695 695 694 694
713 712 712 711 709 709 708 707 706 706 705 704 704 704 703 703 703 702 702 702 702 702 701 700 699 698 698 697 697 696 695 695 694 693 692 692 692 692 692 692 692 692 692 692 692 692 692 692 692 692 692 692 692 692 692 692 693 693 693 693 692 692 692
710 709 709 708 706 705 705 704 703 703 702 702 702 701 701 700 700 700 700 700 700 700 698 697 697 695 695 694 694 692 692 691 690 690 689 689 689 689 688 688 689 689 689 689 689 689 689 689 690 690 690 690 690 689 690 690 690 690 691 690 690 690 689
707 706 705 704 703 702 701 700 699 699 699 698 698 698 698 698 697 697 697 697 697 696 694 694 693 692 691 691 690 689 689 688 687 687 686 686 686 686 685 686 686 686 686 686 686 687 687 687 687 687 687 688 688 687 687 688 688 688 688 688 688 688 687
704 702 701 701 700 699 698 697 696 696 696 695 695 695 695 695 694 694 694 694 694 692 690 690 690 689 688 688 687 686 685 685 684 683 683 683 683 682 682 683 683 684 684 684 683 684 684 684 685 685 685 685 685 685 685 685 685 686 686 686 686 685 685
700 700 699 697 696 696 695 694 693 693 693 692 692 692 692 692 691 691 691 691 690 688 687 687 686 685 685 684 683 682 682 681 681 680 680 680 679 679 680 680 681 681 681 681 681 681 681 682 682 683 683 683 683 683 683 683 683 683 683 683 683 683 682
696 696 696 695 693 692 692 691 691 690 690 689 689 689 689 689 688 687 686 686 685 684 683 683 682 681 681 680 679 679 678 678 677 677 677 677 676 676 677 677 678 678 678 678 678 678 678 679 680 680 680 681 680 680 680 680 680 680 681 681 681 680 680
693 693 692 692 691 690 689 688 688 687 686 686 685 685 686 685 684 682 682 681 681 680 679 679 678 677 677 677 676 676 675 675 674 674 674 674 674 674 674 674 674 675 675 675 675 675 676 676 677 677 678 678 677 677 677 677 677 678 678 678 678 678 678